Wetbulb
60.13 62.22 63.18 63.11 63.38 66.01 67.44 69.56 70.24 72.67 73.71 73.88 72.51 73.59 74.90 75.11 75.72 76.35 75.25 74.32 73.91 74.44 74.21 73.42 73.12 73.82 71.41 70.39 70.46 69.90 69.95 68.61 64.63 67.96 69.06 67.54 66.49 67.73 67.82 68.07 67.95 68.38 65.01
59.57 60.94 61.56 63.37 64.15 65.68 66.88 68.28 70.39 71.54 72.68 72.62 72.88 73.03 73.24 74.83 75.62 75.04 73.25 72.50 73.25 72.37 72.91 72.72 72.01 71.59 71.23 72.06 71.37 70.53 67.90 67.83 66.03 65.82 66.31 65.50 65.68 66.10 67.01 66.43 67.63 68.89 68.13
59.58 60.40 63.09 64.29 65.02 65.31 66.27 67.90 70.10 70.52 71.32 72.03 72.10 72.34 72.95 73.94 74.07 74.51 73.17 72.56 73.08 73.01 73.28 72.62 71.29 71.28 71.25 69.86 70.23 70.14 67.95 67.06 67.42 65.63 65.94 64.81 65.17 65.29 64.49 66.19 66.90 67.57 65.48
59.60 59.75 61.25 63.92 65.00 65.43 66.93 67.67 68.65 69.70 70.10 70.32 72.56 72.31 72.88 72.97 73.21 73.25 73.37 73.69 73.53 73.10 73.03 71.77 71.17 70.68 70.05 70.11 69.78 68.78 68.22 67.38 67.39 66.03 65.45 63.38 62.95 63.45 62.71 63.12 63.43 66.79 64.44
58.96 59.01 60.38 63.36 64.22 63.56 64.99 66.91 68.32 69.82 69.71 70.01 70.95 71.83 73.44 73.34 72.30 73.90 73.92 74.01 73.54 72.89 72.86 71.51 71.73 69.12 65.10 66.29 67.55 69.36 69.26 66.31 66.07 67.49 65.19 62.95 62.13 61.03 61.44 62.00 63.19 63.69 63.83
58.69 58.96 60.43 61.19 62.07 64.19 66.55 67.33 68.85 70.04 70.57 71.00 71.25 71.52 72.94 71.15 57.38 58.37 69.71 73.11 72.07 71.39 70.49 70.41 70.54 64.68 62.96 57.56 59.82 57.38 63.70 67.87 66.77 65.75 62.30 61.54 62.78 62.34 63.95 62.93 64.00 61.03 59.89
57.74 58.41 58.87 60.51 60.99 62.08 64.13 65.75 68.08 70.56 72.01 72.02 72.21 72.69 73.53 73.55 53.65 55.13 59.61 72.41 71.90 71.87 70.94 70.48 68.80 67.92 65.05 67.14 57.70 56.48 57.81 57.07 60.04 67.37 64.94 64.11 63.43 64.00 63.58 63.46 62.98 63.42 63.74
56.56 57.44 57.67 59.36 60.49 61.63 64.89 65.37 68.77 71.27 72.18 73.05 73.66 73.63 74.25 69.27 51.30 52.26 56.70 71.57 70.82 70.29 69.90 69.60 69.37 68.62 66.99 66.34 65.96 64.56 65.15 65.70 65.40 65.70 66.91 65.99 65.56 66.11 66.24 66.11 65.31 65.09 65.48
55.93 56.74 57.44 58.70 60.13 62.20 63.83 66.22 69.43 71.29 72.21 73.10 73.62 73.60 71.96 66.27 49.11 52.05 60.58 69.97 69.07 68.67 68.73 68.60 68.09 67.67 56.24 50.72 66.24 64.91 65.21 64.90 53.93 51.61 54.00 52.93 52.93 54.64 59.26 66.06 63.76 61.97 60.65
55.63 56.37 58.00 59.11 60.88 63.46 65.45 67.74 69.83 71.64 72.29 72.34 71.42 72.71 63.61 68.06 46.92 50.43 58.16 68.10 68.02 66.70 68.09 67.81 54.71 63.22 47.48 47.84 66.82 66.68 64.80 65.28 64.49 64.58 63.58 58.21 58.67 59.27 52.74 65.82 65.94 61.65 60.45
56.43 57.48 58.48 59.54 62.64 64.65 67.51 69.31 70.39 71.10 68.98 68.53 69.27 68.93 68.74 66.30 59.64 46.75 49.11 66.76 66.43 66.09 65.41 66.00 65.12 46.17 44.94 45.67 48.93 67.96 64.18 65.33 59.87 65.03 64.00 63.41 63.79 64.22 63.90 65.51 67.12 63.64 61.27
56.47 56.82 57.93 60.89 63.46 65.00 67.60 68.87 69.29 66.85 67.01 67.84 68.18 66.80 67.17 65.19 54.32 48.08 48.93 53.06 57.96 66.17 65.11 65.09 59.29 43.82 44.22 46.94 55.93 48.39 49.47 55.32 66.20 66.25 64.43 63.01 63.02 62.75 63.67 65.23 66.73 66.13 65.29
55.95 57.08 57.95 62.91 62.84 66.13 67.38 64.80 65.24 66.61 66.69 66.07 66.05 65.61 64.91 64.78 63.28 46.07 45.12 47.30 50.15 66.39 61.87 51.96 44.47 42.95 43.67 49.24 44.40 45.85 51.29 61.40 62.67 63.45 62.98 63.90 64.14 63.78 64.04 65.54 65.78 66.43 66.09
54.58 55.83 60.17 60.86 62.09 64.47 64.99 65.80 66.34 66.59 66.25 65.69 64.87 63.57 63.75 64.39 63.87 64.17 62.25 61.59 52.16 57.64 52.46 58.17 55.73 54.05 50.26 56.08 55.90 56.84 64.06 63.83 62.64 62.58 63.28 63.78 63.77 62.80 62.79 65.11 62.98 63.63 63.25
56.05 59.71 60.97 62.10 63.26 63.05 58.86 63.02 66.18 67.71 64.18 65.57 64.98 64.25 63.56 63.11 63.16 59.23 60.48 64.32 64.77 59.47 60.65 61.73 62.05 61.86 61.76 62.05 62.85 62.95 63.97 63.01 61.95 63.00 62.21 61.10 60.84 61.38 61.95 63.08 62.53 62.16 60.82
57.29 60.43 61.48 62.28 59.62 59.93 59.87 56.60 44.20 46.03 44.92 45.00 50.81 59.92 59.59 49.62 44.54 45.79 44.75 44.71 47.01 48.13 61.53 61.79 61.28 60.80 61.22 61.50 62.24 61.93 62.04 59.38 62.37 62.28 62.18 61.43 60.24 60.29 60.78 61.41 61.97 61.45 60.59
58.54 61.13 60.64 59.38 61.71 61.62 61.55 59.54 57.92 52.77 44.36 41.48 42.53 43.85 46.87 44.06 42.77 43.13 43.31 43.49 42.95 46.56 62.45 62.11 61.40 61.72 61.27 61.35 61.34 61.25 61.21 61.91 62.66 61.51 61.46 61.86 60.99 61.10 59.54 60.26 61.04 60.04 59.97
60.18 53.70 63.23 63.07 62.64 62.58 61.83 61.11 62.18 61.63 60.47 58.99 45.43 47.54 41.35 41.32 41.50 42.77 43.85 48.95 59.31 58.83 62.51 60.76 60.47 61.20 61.53 61.47 61.34 60.95 61.15 61.61 61.96 61.11 61.80 61.45 61.27 60.24 60.28 59.82 60.13 60.11 59.16
60.99 62.01 62.48 63.52 61.51 58.91 62.85 62.68 61.85 61.27 58.98 54.23 52.75 46.72 44.04 41.32 42.40 43.49 44.40 59.61 57.58 57.60 59.62 61.11 60.85 61.41 61.08 60.52 60.59 60.59 60.70 60.48 60.07 61.08 60.97 61.60 60.97 60.93 60.14 60.76 57.69 48.47 51.62
61.93 52.28 57.42 61.92 60.20 61.38 62.06 61.33 59.37 58.06 57.63 57.14 54.58 52.56 52.89 54.38 56.81 58.56 60.38 59.85 59.39 57.54 57.91 59.06 60.29 60.46 60.53 60.36 60.31 60.15 60.15 59.22 60.14 61.74 61.53 61.06 61.48 61.30 58.85 60.33 59.58 59.97 59.20
61.16 59.46 54.48 62.44 62.55 62.14 61.28 60.89 60.33 59.61 58.27 57.17 57.13 54.27 42.21 57.05 55.78 54.37 55.70 58.07 57.30 57.82 58.88 59.18 59.52 59.85 60.13 60.87 61.26 60.71 60.83 61.38 61.63 61.52 61.27 61.11 59.63 57.51 60.14 58.99 60.65 60.71 60.97
62.14 63.20 63.03 62.42 62.37 61.36 60.54 59.43 58.78 57.54 56.26 53.68 51.26 47.12 38.93 53.92 52.92 52.59 52.80 53.74 56.26 58.46 59.09 58.93 58.69 59.17 59.52 60.52 61.12 61.72 60.89 61.64 61.13 61.41 61.47 60.03 60.41 62.33 62.04 61.34 59.83 60.00 60.84
63.41 62.98 62.82 61.45 61.50 54.77 59.35 59.12 57.68 57.32 55.37 54.50 53.47 53.00 53.75 52.45 52.64 52.47 51.39 52.14 54.82 56.71 57.21 57.67 57.63 57.36 57.33 55.27 57.84 61.91 58.30 59.26 60.67 62.36 62.86 62.90 62.28 61.86 61.20 59.47 57.72 56.09 55.21
63.22 63.02 61.55 61.25 60.10 59.57 59.19 58.27 57.04 51.10 53.66 52.23 50.17 48.46 47.04 48.54 49.10 48.49 48.75 49.50 50.68 53.11 52.84 52.03 51.63 50.97 50.88 49.29 52.80 55.81 54.78 58.42 60.83 60.36 61.34 59.73 58.51 56.92 57.14 55.92 54.81 54.52 52.96
62.55 60.72 59.86 59.13 58.79 58.48 58.19 56.94 55.80 53.73 52.27 48.95 46.69 46.87 46.58 46.78 46.53 45.58 46.21 48.16 47.08 48.97 50.12 47.73 46.30 44.92 43.04 42.05 44.23 44.56 35.98 34.81 50.51 44.70 53.35 51.49 50.34 48.68 50.81 48.21 46.34 44.34 43.31
60.94 59.98 59.46 59.04 58.50 58.24 56.61 55.40 54.99 55.62 52.34 50.13 47.14 44.94 46.87 45.25 45.92 45.52 44.93 45.65 44.55 42.20 42.00 41.92 41.68 42.52 42.39 41.54 40.27 34.59 33.73 34.26 41.63 36.18 46.92 45.94 45.32 45.73 46.31 45.01 44.94 44.17 43.93
MSLP
1001.93 1001.86 1001.81 1001.70 1001.68 1001.88 1001.80 1001.61 1001.51 1001.24 1000.84 1000.55 1000.77 1000.87 1001.19 1001.44 1001.82 1002.36 1002.56 1002.74 1003.41 1004.00 1004.30 1004.65 1005.03 1005.27 1005.36 1005.67 1006.00 1006.26 1006.94 1007.31 1007.20 1006.96 1007.45 1008.63 1008.94 1008.96 1008.96 1008.78 1008.94 1008.85 1009.39
1001.29 1001.19 1001.03 1000.91 1001.00 1001.13 1000.96 1000.81 1000.67 1000.23 1000.20 1000.20 1000.13 1000.00 1000.45 1000.59 1001.19 1001.64 1001.95 1001.85 1002.66 1003.30 1003.83 1004.23 1004.60 1005.02 1005.54 1005.63 1006.17 1006.57 1006.77 1006.72 1006.43 1006.97 1008.01 1008.48 1008.96 1009.18 1009.26 1009.23 1009.06 1009.13 1009.07
1000.33 1000.42 1000.36 1000.26 1000.35 1000.17 1000.18 1000.07 999.87 999.53 999.56 999.40 999.41 999.16 999.20 999.63 1000.40 1001.09 1001.16 1001.44 1001.92 1002.54 1003.27 1003.78 1004.28 1004.77 1005.16 1005.72 1005.86 1006.10 1006.08 1006.36 1006.62 1007.11 1008.03 1008.52 1009.11 1009.52 1009.58 1009.34 1009.41 1009.47 1009.89
999.67 999.81 999.71 999.42 999.34 999.34 999.20 999.02 999.02 998.83 998.57 998.55 998.53 998.42 998.44 998.87 999.55 1000.14 1000.66 1000.88 1001.47 1002.18 1002.89 1003.44 1003.96 1004.31 1004.86 1005.38 1005.76 1005.77 1005.86 1006.22 1006.67 1007.10 1007.88 1008.46 1009.14 1009.71 1009.84 1009.59 1009.65 1009.76 1009.81
999.15 999.37 999.06 998.71 998.54 998.58 998.46 998.21 997.96 997.76 997.70 997.93 997.59 997.62 997.81 998.23 998.58 999.36 999.86 1000.58 1001.19 1001.79 1002.48 1003.21 1003.71 1004.21 1004.90 1005.33 1005.19 1005.69 1005.90 1006.50 1006.86 1007.27 1007.84 1008.33 1008.72 1009.54 1009.56 1009.66 1009.61 1009.95 1010.31
998.70 998.72 998.45 998.09 997.84 997.55 997.45 997.47 997.38 997.13 997.07 997.21 997.03 997.03 997.39 997.67 998.26 999.31 999.77 1000.55 1001.26 1001.85 1002.63 1003.35 1003.79 1004.67 1005.09 1005.46 1005.76 1006.13 1006.20 1006.92 1007.12 1007.35 1007.54 1008.05 1008.45 1009.02 1009.17 1009.17 1009.43 1009.73 1010.06
998.84 998.10 997.81 997.32 997.16 996.81 996.66 996.46 996.10 996.26 996.66 996.52 996.53 996.73 997.21 998.24 999.11 999.64 1000.26 1000.64 1001.19 1001.82 1002.58 1003.24 1003.78 1004.03 1004.82 1005.29 1006.09 1006.49 1006.81 1007.05 1007.33 1007.28 1007.43 1007.64 1008.04 1008.46 1008.96 1009.01 1009.20 1009.16 1009.32
998.60 997.53 996.87 996.30 996.07 995.93 995.51 995.46 995.12 995.48 995.84 995.92 996.11 996.51 997.26 998.95 999.72 999.97 1000.66 1000.81 1001.45 1002.02 1002.66 1003.08 1003.34 1003.61 1004.50 1004.99 1005.65 1006.23 1006.40 1006.91 1007.38 1007.26 1007.46 1007.66 1008.02 1008.46 1008.78 1008.97 1009.14 1009.37 1009.48
997.47 996.63 995.99 995.60 995.25 995.03 994.33 994.65 994.67 994.90 995.08 995.33 995.71 996.34 997.55 999.40 1000.12 1000.21 1000.90 1001.14 1001.48 1001.79 1002.06 1002.49 1003.03 1003.49 1004.51 1005.14 1005.39 1005.87 1006.16 1006.96 1007.64 1007.66 1007.60 1007.88 1008.31 1008.81 1008.92 1009.15 1009.25 1009.09 1009.12
996.42 995.91 995.24 994.74 994.24 993.98 993.90 994.24 994.25 994.34 994.61 994.90 995.71 996.47 997.64 999.26 1000.43 1000.56 1000.96 1000.50 1001.10 1001.41 1001.86 1002.91 1003.86 1003.92 1004.88 1005.22 1005.52 1005.77 1006.08 1006.46 1006.93 1007.62 1008.09 1008.40 1008.61 1008.95 1008.93 1009.10 1008.93 1008.54 1008.60
995.65 994.90 994.40 994.11 993.86 993.66 994.02 993.91 993.84 994.22 994.88 995.39 996.23 997.14 998.12 999.10 1000.44 1001.31 1001.45 1001.08 1000.76 1001.57 1002.23 1002.96 1003.69 1004.72 1005.17 1005.59 1005.82 1005.72 1006.11 1006.36 1006.80 1007.23 1007.65 1008.09 1008.43 1008.78 1008.93 1008.93 1008.78 1008.31 1008.30
994.59 994.17 993.82 993.47 993.37 993.39 993.23 993.20 993.42 994.07 995.00 995.85 996.69 997.53 998.52 999.57 1000.55 1001.40 1001.49 1001.51 1001.22 1001.49 1001.88 1002.79 1004.52 1005.36 1005.78 1006.01 1006.10 1006.45 1006.52 1006.74 1006.92 1007.36 1007.46 1007.64 1007.88 1008.25 1008.44 1008.62 1008.74 1008.52 1008.21
993.99 993.49 993.20 992.62 992.66 992.54 992.38 992.62 993.28 994.33 995.20 996.13 996.59 997.14 998.12 999.41 1000.55 1001.60 1001.96 1002.02 1002.11 1002.47 1002.98 1003.89 1004.95 1005.72 1006.12 1006.40 1006.67 1006.67 1006.80 1007.17 1007.14 1007.36 1007.57 1007.72 1007.84 1008.13 1008.51 1008.55 1008.71 1008.79 1008.68
993.04 992.69 992.31 991.82 991.84 991.80 991.80 992.58 993.37 994.45 995.46 995.75 996.15 997.02 998.05 999.35 1000.40 1001.01 1001.88 1002.35 1002.80 1003.54 1004.22 1004.86 1005.33 1005.45 1005.75 1006.09 1006.88 1007.00 1006.72 1007.19 1007.23 1007.37 1007.57 1007.68 1008.00 1008.17 1008.26 1008.37 1008.61 1008.65 1008.57
991.75 991.28 990.96 991.08 991.19 991.90 992.96 993.52 994.09 994.74 994.91 995.47 996.20 996.91 997.90 999.18 1000.11 1000.40 1001.20 1001.68 1002.27 1003.14 1004.05 1004.81 1005.10 1005.31 1005.69 1005.96 1006.20 1006.52 1006.56 1006.92 1007.21 1007.31 1007.54 1007.96 1008.14 1008.15 1008.25 1008.44 1008.52 1008.54 1008.42
990.97 990.30 990.24 990.69 991.68 992.49 993.80 995.18 996.22 996.36 996.00 996.43 996.39 996.90 999.00 1000.03 1000.51 1001.06 1001.85 1002.37 1003.08 1003.76 1003.82 1004.14 1004.73 1005.00 1005.15 1005.60 1005.79 1006.10 1006.26 1006.59 1006.85 1007.24 1007.62 1007.88 1008.09 1008.23 1008.35 1008.55 1008.56 1008.54 1008.55
990.31 989.12 989.83 990.81 991.79 992.71 993.83 994.80 996.37 997.59 997.86 998.45 998.60 999.09 999.52 1000.82 1001.36 1002.13 1002.81 1003.41 1003.98 1004.48 1004.19 1004.18 1004.49 1004.82 1005.12 1005.45 1005.78 1006.07 1006.38 1006.70 1007.00 1007.39 1007.63 1007.81 1008.03 1008.19 1008.58 1008.78 1008.68 1008.87 1008.94
988.25 989.64 990.32 990.86 991.73 992.78 993.75 994.44 995.61 996.82 998.17 999.70 1000.45 1000.58 1001.26 1001.77 1002.42 1003.14 1003.56 1004.00 1004.61 1004.45 1004.37 1004.49 1004.77 1005.02 1005.30 1005.67 1005.97 1006.32 1006.68 1007.03 1007.20 1007.53 1007.64 1007.90 1008.20 1008.49 1008.63 1008.95 1009.11 1009.04 1009.48
989.55 990.32 990.74 991.42 992.46 993.08 993.57 994.39 995.79 997.12 998.83 1000.31 1001.49 1002.33 1002.68 1002.97 1003.42 1003.75 1003.98 1004.30 1004.78 1004.99 1004.89 1004.78 1005.12 1005.38 1005.83 1006.21 1006.38 1006.64 1006.97 1007.47 1007.68 1007.57 1007.82 1007.91 1008.35 1008.47 1008.71 1008.82 1009.47 1009.60 1009.60
990.33 990.70 991.66 992.57 993.66 993.67 994.31 995.25 996.85 998.46 999.59 1000.56 1001.77 1002.75 1003.27 1003.54 1004.10 1004.26 1004.33 1004.55 1004.85 1005.15 1005.42 1005.24 1005.50 1005.87 1006.20 1006.25 1006.52 1006.82 1007.15 1007.61 1007.68 1007.60 1007.83 1008.17 1008.21 1008.24 1008.82 1008.81 1009.02 1009.07 1009.34
990.65 991.79 992.17 992.62 993.62 994.32 995.22 996.08 997.19 998.34 999.65 1000.96 1001.81 1002.74 1003.19 1003.69 1004.37 1004.74 1004.84 1005.00 1005.10 1005.47 1005.66 1005.79 1005.96 1006.28 1006.48 1006.57 1006.73 1006.71 1006.98 1007.19 1007.29 1007.74 1007.98 1008.09 1008.60 1008.64 1008.75 1008.97 1008.81 1008.76 1008.75
990.68 991.34 992.33 993.14 993.94 994.78 995.81 996.95 997.97 999.22 1000.53 1001.61 1002.73 1003.42 1003.82 1004.52 1004.94 1005.30 1005.62 1005.77 1005.72 1005.83 1006.02 1006.37 1006.69 1006.85 1006.96 1007.09 1007.13 1007.01 1007.22 1007.24 1007.43 1007.67 1007.77 1008.26 1008.43 1008.23 1008.40 1008.72 1008.87 1008.84 1008.79
990.96 992.32 993.18 994.03 994.90 996.10 996.81 997.95 999.03 999.93 1001.17 1002.16 1003.11 1003.81 1004.48 1005.19 1005.62 1006.01 1006.41 1006.68 1006.71 1006.76 1007.06 1007.32 1007.46 1007.80 1008.20 1008.38 1008.06 1007.76 1008.23 1008.10 1008.09 1007.96 1007.90 1008.02 1008.28 1008.39 1008.59 1009.22 1009.60 1009.94 1010.23
992.28 993.16 994.09 994.94 995.94 996.74 997.65 998.58 999.54 1000.84 1001.84 1002.98 1004.16 1005.06 1005.71 1006.07 1006.54 1007.05 1007.36 1007.57 1007.60 1007.71 1008.15 1008.53 1008.83 1008.99 1009.30 1009.30 1008.63 1008.56 1009.00 1008.88 1008.60 1008.64 1008.43 1008.85 1009.34 1009.42 1009.73 1010.16 1010.65 1010.83 1011.04
993.56 994.65 995.28 996.12 996.98 997.69 998.66 999.48 1000.68 1001.71 1002.70 1003.92 1004.97 1005.64 1006.25 1006.68 1007.20 1007.80 1008.16 1008.39 1008.79 1008.89 1009.35 1009.88 1010.17 1010.49 1010.63 1010.70 1010.63 1010.67 1010.65 1010.28 1009.91 1010.02 1010.07 1010.36 1010.68 1010.96 1010.70 1011.32 1011.78 1012.08 1012.11
995.19 995.80 996.39 997.16 997.90 998.66 999.62 1000.26 1001.28 1001.94 1003.25 1004.33 1005.51 1006.32 1006.62 1007.30 1007.84 1008.45 1008.89 1009.23 1009.78 1010.47 1010.87 1011.32 1011.55 1011.47 1011.48 1011.65 1011.76 1011.63 1011.33 1011.06 1010.94 1011.01 1011.10 1011.37 1011.59 1011.71 1011.83 1011.97 1011.94 1012.14 1012.40
Wind_Speed
14 13 12 10 12 12 12 13 13 12 12 13 15 15 14 14 15 14 13 12 13 11 10 12 11 8 7 7 7 4 3 4 6 2 5 6 2 5 2 3 3 3 6
14 14 13 12 12 12 12 13 13 12 12 13 13 13 15 15 14 15 15 13 14 14 11 11 8 8 10 6 4 5 7 7 8 3 3 3 4 1 3 4 3 2 3
15 14 13 13 12 13 13 13 14 12 12 13 15 16 16 16 15 15 15 14 14 13 12 11 9 11 9 6 7 7 7 5 4 4 4 4 2 1 2 3 3 4 5
15 14 15 13 12 13 13 14 14 14 15 15 14 16 16 16 16 16 15 12 12 12 9 8 10 10 9 9 8 6 4 1 4 2 4 4 3 2 1 1 3 3 3
13 16 15 14 14 15 15 15 15 15 14 17 16 17 14 13 12 14 13 12 11 12 10 10 9 8 6 4 6 7 5 5 4 3 4 4 5 3 5 2 4 4 6
13 15 17 15 17 15 14 16 15 16 15 15 15 16 14 12 13 13 11 10 12 11 10 11 8 10 8 10 11 12 3 7 5 4 4 5 6 6 4 6 6 6 5
21 17 18 16 17 17 17 17 16 15 14 14 15 14 13 12 14 15 10 10 11 9 9 8 10 9 9 9 8 6 7 7 5 3 6 5 7 9 6 6 4 5 2
21 21 19 17 17 18 18 16 16 12 14 13 13 13 12 10 11 15 11 10 9 10 11 11 11 11 12 11 10 9 8 7 5 4 4 4 5 5 6 6 5 4 5
23 21 20 18 18 20 17 16 16 13 14 13 13 14 15 12 9 15 12 12 12 11 10 10 9 8 9 5 10 11 9 8 5 6 6 8 8 7 6 5 5 6 4
22 21 21 17 18 20 14 17 16 13 14 13 13 13 13 15 9 14 11 9 10 8 7 8 9 3 11 10 10 10 9 10 9 8 7 6 7 5 2 5 6 5 5
19 21 19 15 18 13 17 15 13 13 12 12 12 10 14 15 10 4 5 5 9 7 7 8 6 9 8 6 1 8 8 8 7 7 7 7 7 7 6 6 6 5 6
20 16 18 17 14 12 17 14 15 14 14 14 14 12 11 12 10 7 8 7 4 8 3 7 8 10 10 7 5 5 6 4 5 6 6 6 7 7 6 5 5 5 4
18 19 17 20 11 15 15 17 13 16 13 12 13 13 13 10 8 10 10 8 12 5 8 12 15 11 10 9 8 9 7 4 3 5 4 4 5 6 3 5 6 4 2
18 18 20 11 11 14 14 15 14 13 13 13 12 12 11 11 10 9 7 9 13 11 13 10 8 8 2 10 7 6 7 4 5 4 5 5 5 5 5 4 5 6 5
17 18 11 12 13 14 9 7 12 9 10 13 11 12 12 12 11 11 11 10 8 10 11 10 9 8 8 8 8 8 6 7 5 4 6 5 5 5 4 5 4 3 5
12 11 12 12 11 11 11 12 19 12 19 15 13 11 8 16 15 15 14 16 18 14 10 9 9 6 8 7 7 6 6 5 5 6 6 6 6 5 4 4 5 6 5
11 14 10 14 13 14 11 11 11 15 26 23 20 18 17 15 19 17 16 16 11 4 3 7 8 6 7 6 5 4 5 4 5 5 5 4 4 3 3 3 3 3 4
12 17 13 13 13 13 13 11 11 11 12 11 17 12 16 17 18 17 15 13 7 4 6 7 6 6 6 5 5 4 4 4 4 4 4 5 4 3 4 3 4 3 2
15 11 12 12 10 8 13 13 12 12 12 9 8 10 11 14 14 13 7 8 6 4 2 6 6 6 6 5 4 4 4 4 4 5 4 5 4 4 4 4 3 4 2
16 17 12 9 10 10 12 11 13 12 12 10 9 7 5 9 7 8 7 8 7 5 3 2 6 6 5 4 4 5 4 4 5 4 4 2 4 4 4 4 2 5 5
13 9 14 13 13 13 12 13 12 11 12 10 10 7 9 9 8 7 7 7 3 7 2 4 5 5 2 2 4 5 5 5 5 7 6 4 1 0 4 5 6 6 5
13 13 14 13 13 11 11 11 11 12 13 11 9 5 9 9 7 8 8 7 6 6 6 7 6 5 5 6 6 3 3 5 5 5 6 5 5 6 3 2 2 1 3
14 15 14 11 12 13 11 12 11 12 12 12 11 9 9 9 9 9 9 8 7 8 7 8 6 7 8 5 6 7 6 4 3 2 3 3 4 4 6 7 7 7 7
15 14 12 13 12 11 12 12 13 14 12 12 11 10 9 8 10 11 8 7 6 7 10 9 9 10 8 6 5 8 8 7 7 8 9 9 8 7 7 7 7 7 8
13 10 12 12 11 11 14 13 14 13 13 12 10 10 10 9 10 10 8 9 9 10 13 11 9 12 13 14 12 11 9 10 9 8 8 9 12 12 10 10 9 9 5
11 11 11 11 12 13 12 12 12 12 13 11 12 9 10 10 10 10 9 10 11 11 12 11 13 16 15 13 13 11 10 12 13 10 9 8 8 8 8 9 12 8 10
Wind_Direction
265 262 269 266 259 254 254 253 249 249 250 224 223 210 205 206 201 195 205 199 198 210 215 199 199 222 222 216 231 231 212 225 252 171 123 123 157 262 253 245 225 222 150
257 265 270 270 259 258 257 262 258 248 239 236 228 215 213 206 197 197 201 207 192 207 203 205 202 206 221 218 215 234 235 240 259 38 86 156 231 204 304 257 263 230 135
260 263 264 259 258 257 257 258 260 254 243 233 225 220 211 203 194 199 202 210 191 199 202 202 204 206 198 211 224 207 217 229 227 224 182 165 129 87 281 269 227 117 85
265 267 267 268 264 258 254 251 252 248 244 234 228 224 215 205 197 197 204 202 184 193 191 195 211 193 203 199 220 232 253 222 212 169 141 162 160 181 127 211 142 133 95
267 267 263 266 261 255 253 257 252 247 240 237 223 223 211 208 198 194 196 195 176 190 184 198 205 187 189 207 215 204 213 212 234 174 168 202 174 172 189 193 155 154 106
259 270 268 262 268 256 245 239 244 245 236 235 229 215 210 210 166 171 182 170 189 186 185 195 164 124 118 92 78 52 109 239 239 202 184 208 198 185 210 184 164 155 157
282 269 265 260 257 259 255 256 235 230 233 225 227 208 203 195 138 130 145 178 188 181 182 186 191 184 177 185 100 106 100 89 47 255 202 198 182 181 176 181 187 216 28
264 263 268 262 253 255 249 247 246 218 219 212 210 195 181 136 141 129 159 184 172 178 185 187 208 164 184 191 182 196 200 190 194 222 206 177 189 170 184 194 171 163 128
257 260 264 257 251 252 247 245 239 212 205 199 192 178 144 143 157 141 170 166 174 180 184 195 191 201 157 180 187 198 198 147 91 57 75 101 114 157 184 153 181 186 163
251 261 259 256 250 251 251 244 222 204 195 189 172 162 133 149 164 163 188 181 166 178 172 132 65 235 155 175 204 201 185 173 166 144 126 109 150 131 237 224 204 208 190
256 257 259 253 254 252 250 235 200 187 174 153 144 132 151 154 150 120 78 294 157 171 192 177 133 114 142 147 253 203 186 165 150 165 153 157 168 166 190 205 221 236 185
253 268 267 250 245 238 229 204 182 166 148 148 138 137 144 143 128 97 62 48 121 199 158 106 108 112 104 97 116 148 103 83 168 165 171 172 173 173 192 185 203 224 281
251 249 248 252 244 230 200 185 164 150 141 150 150 145 139 141 129 86 67 55 50 68 76 92 110 109 116 95 122 118 109 98 137 166 174 178 175 156 173 206 190 222 237
243 246 246 223 210 188 166 158 143 149 158 154 145 145 144 150 149 155 135 115 107 103 110 115 133 123 78 110 138 161 157 153 145 161 171 162 143 167 181 190 188 202 211
237 244 210 174 155 144 76 138 156 144 154 151 150 152 156 157 160 151 158 163 152 124 126 140 147 149 152 160 156 172 170 160 191 180 159 169 187 193 175 183 199 234 221
246 189 155 143 124 118 109 93 44 66 63 70 100 142 73 101 104 104 98 98 113 149 160 148 152 175 155 161 164 163 166 159 158 160 173 178 186 196 180 205 217 222 232
219 146 133 129 128 133 122 112 110 67 65 51 69 80 90 108 98 101 111 114 119 156 157 158 156 164 158 152 151 157 136 144 158 166 183 178 166 188 184 215 240 242 245
126 126 137 129 133 134 130 116 119 121 113 92 44 75 90 97 104 112 115 124 137 135 145 145 142 149 152 145 150 150 130 149 161 177 175 167 168 188 188 205 221 243 262
124 115 119 109 111 104 128 139 127 121 105 107 99 69 76 89 109 120 136 131 128 114 135 132 133 136 137 140 151 140 149 162 184 183 186 177 177 203 186 211 221 249 313
126 114 110 111 129 134 124 109 108 123 126 115 111 114 118 120 128 156 150 133 134 124 106 146 137 138 163 156 135 151 153 164 187 202 150 178 196 168 197 233 217 238 205
120 140 140 130 129 137 128 137 133 126 122 118 116 114 103 111 97 79 66 101 113 122 114 109 97 93 112 159 173 189 172 181 177 159 173 141 141 115 198 208 205 221 231
134 125 121 136 129 124 115 111 119 113 113 105 100 91 119 96 92 86 76 72 75 80 87 88 90 73 81 63 50 63 98 149 146 177 150 173 212 217 190 48 50 14 58
121 123 129 119 119 111 116 115 120 122 119 116 111 103 95 102 105 96 87 82 83 81 73 85 86 77 67 32 14 64 56 38 48 316 195 157 76 56 53 56 45 51 56
115 123 120 118 130 124 111 126 111 105 112 107 106 103 100 100 98 92 88 80 62 71 74 65 55 55 64 36 356 43 33 20 37 29 50 59 60 56 74 79 67 60 61
106 118 130 122 123 116 120 121 120 119 112 110 108 104 103 98 98 94 90 87 77 74 76 79 73 69 65 65 64 62 44 41 70 85 82 73 67 56 63 67 71 72 67
118 122 123 122 127 127 121 122 124 121 115 114 112 109 111 106 104 103 98 96 97 90 87 79 75 78 79 73 70 60 53 51 57 52 80 85 92 102 102 91 71 67 66